Weather History for KWAL - October, 2011

Change the Weather History Date:

Monday, October 17, 2011

  Actual Average Record
Temperature  
Mean Temperature 66 °F 59 °F  
Max Temperature 72 °F 68 °F 79 °F (1972)
Min Temperature 60 °F 50 °F 38 °F (1977)
Degree Days  
Heating Degree Days 0    
Month to date heating degree days 66  
Since 1 July heating degree days 81  
Cooling Degree Days 1    
Month to date cooling degree days 18  
Year to date cooling degree days 1680  
Growing Degree Days 16 (Base 50)    
Moisture  
Dew Point 52 °F    
Average Humidity 70    
Maximum Humidity 100    
Minimum Humidity 40    
Precipitation  
Precipitation 0.00 in 0.10 in 4.50 in ()
Month to date precipitation 0.25 1.73  
Year to date precipitation 29.47 33.10  
Sea Level Pressure  
Sea Level Pressure 29.82 in    
Wind  
Wind Speed 7 mph (WSW)    
Max Wind Speed 22 mph    
Max Gust Speed 31 mph    
Visibility 10 miles    
Events      
T = Trace of Precipitation, MM = Missing Value Source: NWS Daily Summary

Daily Weather History Graph

Daily Weather History Graph

Search for Another Location

Airport or City:

Trip Planner

Search our weather history database for the weather conditions in past years. The results will help you decide how hot, cold, wet, or windy it might be!

Date:

Astronomy

Oct. 17, 2011 Rise Set
Actual Time 7:12 AM EDT 6:21 PM EDT
Civil Twilight 6:45 AM EDT 6:48 PM EDT
Nautical Twilight 6:14 AM EDT 7:18 PM EDT
Astronomical Twilight 5:44 AM EDT 7:49 PM EDT
Moon 10:04 PM EDT (10/17) 12:12 PM EDT (10/17)
Length of Visible Light 12h 02m
Length of Day
11h 09m
Waning Gibbous, 74% of the Moon is Illuminated
Oct 17
Waning Gibbous
Oct 19
Last Quarter
Oct 26
New
Nov 2
First Quarter
Nov 10
Full

Hourly Weather History & Observations

Time (EDT) Temp. Dew Point Humidity Pressure Visibility Wind Dir Wind Speed Gust Speed Precip Events Conditions
12:54 AM 69.1 °F 45.0 °F 42% 29.81 in 10.0 mi WSW 12.7 mph 20.7 mph N/A   Clear
1:54 AM 69.1 °F 46.0 °F 44% 29.78 in 10.0 mi WSW 16.1 mph 26.5 mph N/A   Clear
2:54 AM 69.8 °F 46.4 °F 43% 29.77 in 10.0 mi WSW 17.3 mph 29.9 mph N/A   Clear
3:54 AM 69.1 °F 46.9 °F 45% 29.76 in 10.0 mi WSW 13.8 mph 26.5 mph N/A   Clear
4:54 AM 68.0 °F 48.0 °F 49% 29.76 in 10.0 mi West 12.7 mph 29.9 mph N/A   Clear
5:54 AM 68.0 °F 48.9 °F 50% 29.78 in 10.0 mi West 15.0 mph 23.0 mph N/A   Clear
6:54 AM 68.0 °F 50.0 °F 52% 29.78 in 10.0 mi West 13.8 mph 25.3 mph N/A   Clear
7:54 AM 66.9 °F 55.0 °F 66% 29.82 in 10.0 mi WNW 8.1 mph - N/A   Clear
8:54 AM 66.9 °F 51.1 °F 57% 29.85 in 10.0 mi NW 6.9 mph - N/A   Overcast
9:54 AM 68.0 °F 52.0 °F 56% 29.87 in 10.0 mi NNW 9.2 mph - N/A   Overcast
10:54 AM 68.0 °F 51.1 °F 55% 29.87 in 10.0 mi North 9.2 mph - N/A   Mostly Cloudy
11:54 AM 69.1 °F 48.9 °F 49% 29.86 in 10.0 mi NE 4.6 mph - N/A   Mostly Cloudy
12:54 PM 70.0 °F 48.0 °F 46% 29.85 in 10.0 mi Calm Calm - N/A   Clear
1:54 PM 70.0 °F 48.9 °F 47% 29.83 in 10.0 mi Variable 5.8 mph - N/A   Mostly Cloudy
2:54 PM 70.0 °F 48.9 °F 47% 29.81 in 10.0 mi Variable 4.6 mph - N/A   Mostly Cloudy
3:54 PM 70.0 °F 51.1 °F 51% 29.82 in 10.0 mi South 8.1 mph - N/A   Mostly Cloudy
4:54 PM 68.0 °F 52.0 °F 56% 29.82 in 10.0 mi SSE 8.1 mph - N/A   Clear
5:54 PM 64.9 °F 55.0 °F 70% 29.82 in 10.0 mi SSE 8.1 mph - N/A   Clear
6:54 PM 63.0 °F 57.0 °F 81% 29.83 in 10.0 mi South 4.6 mph - N/A   Clear
7:54 PM 63.0 °F 57.9 °F 84% 29.84 in 10.0 mi Calm Calm - N/A   Clear
8:54 PM 62.1 °F 57.9 °F 86% 29.84 in 10.0 mi Calm Calm - N/A   Clear
9:54 PM 61.0 °F 59.0 °F 93% 29.84 in 10.0 mi Calm Calm - N/A   Clear
10:54 PM 61.0 °F 59.0 °F 93% 29.84 in 8.0 mi Calm Calm - N/A   Clear
11:54 PM 61.0 °F 60.1 °F 97% 29.83 in 10.0 mi South 3.5 mph - N/A   Clear